[[{"header":{"parameterUnit":"m.s-1","parameterCategory":1,"la1":30.2991,"la2":30.254,"lo1":-89.0895,"lo2":-89.0444,"dy":0.0017,"dx":0.0017,"nx":28,"ny":28,"refTime":"2023-10-26T03:00:00:Z","depth":0,"parameterNumber":2,"parameterNumberName":"U-component_of_WINDS"},"data":[0,0,0,0,0,0,0,0,0,0,0,0,0,0,0,0,0,0,0,0,0,0,0,0,0,0,0,0,0,0,0,0,0,0,0,0,0,0,0,0,0,0,0,0,0,0,0,0,0,0,0,0,0,0,0,0,0,0,-2.6445,-2.6445,0,-2.6416,-2.6416,-2.6415,-2.6311,-2.6309,-2.6306,-2.6304,-2.6277,-2.6279,-2.628,0,0,0,0,0,0,0,0,0,0,0,0,0,-2.6414,-2.6415,-2.6445,-2.6445,-2.6444,-2.6416,-2.6416,-2.6415,-2.6312,-2.6309,-2.6306,-2.6303,-2.6277,-2.6278,-2.628,0,0,0,0,0,0,0,0,0,0,0,0,0,-2.6411,-2.6415,-2.6445,-2.6389,-2.6384,-2.6416,-2.6416,-2.6415,-2.6312,-2.6309,-2.6305,-2.6302,-2.6276,-2.6278,-2.628,-2.6365,0,0,-2.6287,-2.6288,0,0,0,0,0,0,0,0,-2.6411,-2.6412,-2.6398,-2.6393,-2.6387,-2.6363,-2.6395,-2.6399,-2.6313,-2.6339,-2.6304,-2.63,-2.6309,-2.6308,-2.6311,-2.6364,-2.6363,-2.6287,-2.6289,-2.629,-2.629,0,0,0,0,0,0,0,-2.6411,-2.6413,-2.6433,-2.6398,-2.6391,-2.6367,-2.6362,-2.6395,-2.6345,-2.6337,-2.6329,-2.6327,-2.6305,-2.6309,-2.6309,-2.6363,-2.6287,-2.6289,-2.6291,-2.6292,-2.6486,-2.6489,0,0,0,0,0,0,-2.6419,-2.6413,-2.6434,-2.6433,-2.639,-2.637,-2.6365,-2.6375,-2.6344,-2.6336,-2.633,-2.6322,-2.6307,-2.6307,-2.6308,-2.6405,-2.629,-2.6292,-2.6293,-2.6482,-2.6487,-2.6491,0,0,0,0,0,0,-2.6419,-2.6422,-2.6436,-2.6421,-2.6421,-2.6374,-2.6386,-2.6376,-2.6379,-2.6339,-2.633,-2.6343,-2.6304,-2.6305,-2.6352,-2.6403,-2.6293,-2.6295,-2.6477,-2.6483,-2.6489,-2.6601,0,0,0,0,0,0,-2.6418,-2.6422,-2.6453,-2.6422,-2.6422,-2.6479,-2.6389,-2.6378,-2.6383,-2.6372,-2.6348,-2.6341,-2.6301,-2.6349,-2.6354,-2.6404,-2.6297,-2.6473,-2.648,-2.6487,-2.6592,-2.661,-2.6625,0,0,0,0,0,-2.6418,-2.6486,-2.6455,-2.6458,-2.6459,-2.6482,-2.6482,-2.6434,-2.6387,-2.6418,-2.6393,-2.6341,-2.6397,-2.6355,-2.636,-2.6411,-2.6469,-2.6478,-2.6486,-2.6585,-2.6606,-2.6624,0,0,0,0,0,0,-2.6524,-2.6481,-2.6446,-2.6506,-2.6499,-2.6464,-2.6502,-2.6458,-2.6464,-2.6454,-2.6396,-2.6392,-2.6447,-2.6434,-2.6388,-2.6492,-2.6425,-2.6435,-2.6498,-2.6518,-2.6534,-2.6535,-2.6298,0,0,0,0,0,-2.6555,-2.6576,-2.6538,-2.6595,-2.6593,-2.6549,-2.6557,-2.6521,-2.6511,-2.6507,-2.6485,-2.6478,-2.6494,-2.6506,-2.6518,-2.6591,-2.6584,-2.6629,-2.6645,-2.6659,-2.6667,-2.6705,-2.6725,-2.6519,-2.6519,-2.6519,0,0,-2.6617,-2.6597,-2.6614,-2.6616,-2.6605,-2.663,-2.6546,-2.6575,-2.6593,-2.6512,-2.6554,-2.6539,-2.6527,-2.6588,-2.6614,-2.6579,-2.6723,-2.6669,-2.668,-2.6682,-2.6716,-2.6736,-2.6753,-2.6525,-2.6524,-2.6523,0,0,-2.6744,-2.6731,-2.6777,-2.6769,-2.6755,-2.6725,-2.6737,-2.671,-2.6696,-2.6738,-2.6678,-2.67,-2.6728,-2.6723,-2.6724,-2.6852,-2.6805,-2.6859,-2.6942,-2.698,-2.6996,-2.701,-2.7055,-2.7072,-2.6868,-2.6868,-2.6868,0,-2.6824,-2.6857,-2.6806,-2.6839,-2.6843,-2.6771,-2.6818,-2.6813,-2.6804,-2.6809,-2.677,-2.6805,-2.6793,-2.6851,-2.6883,-2.6886,-2.6898,-2.6859,-2.6998,-2.7011,-2.7024,-2.7066,-2.7084,-2.6874,-2.6874,-2.6873,-2.6872,0,-2.6956,-2.6981,-2.702,-2.7013,-2.7021,-2.7061,-2.7017,-2.7032,-2.6997,-2.6973,-2.7018,-2.7001,-2.7008,-2.702,-2.6986,-2.7075,-2.7054,-2.7008,-2.6938,-2.705,-2.7089,-2.7106,-2.6884,-2.6881,-2.6879,-2.6878,0,0,-2.7145,-2.7112,-2.7127,-2.7123,-2.7104,-2.7122,-2.7161,-2.7168,-2.7182,-2.718,-2.721,-2.7238,-2.7195,-2.7197,-2.7162,-2.7196,-2.7299,-2.7145,-2.7144,-2.7174,-2.7396,-2.7429,-2.7449,-2.7269,-2.7272,-2.7274,-2.7396,0,-2.7265,-2.7326,-2.7283,-2.7352,-2.7375,-2.7309,-2.7342,-2.7335,-2.7315,-2.7332,-2.7309,-2.7329,-2.7272,-2.7272,-2.7303,-2.728,-2.7343,-2.7271,-2.7297,-2.7299,-2.73,-2.7469,-2.7504,-2.762,-2.7411,-2.7414,-2.7416,0,-2.7411,-2.7415,-2.7487,-2.7464,-2.7472,-2.7503,-2.7507,-2.7524,-2.7516,-2.7498,-2.7502,-2.7459,-2.7497,-2.7431,-2.7482,-2.7434,-2.7443,-2.7434,-2.7437,-2.7436,-2.7362,-2.7471,-2.7656,-2.7673,-2.7439,-2.7438,-2.7436,0,-2.7541,-2.7565,-2.761,-2.761,-2.7585,-2.7608,-2.7599,-2.7587,-2.7595,-2.76,-2.7605,-2.7615,-2.762,-2.7629,-2.7591,-2.7546,-2.7648,-2.7578,-2.7634,-2.7635,-2.7656,-2.7655,-2.7843,-2.7666,-2.7665,-2.7665,-2.7665,0,-2.7677,-2.7723,-2.7668,-2.7696,-2.7747,-2.7698,-2.775,-2.7734,-2.7725,-2.775,-2.7695,-2.772,-2.7669,-2.7689,-2.766,-2.7707,-2.7711,-2.7698,-2.7689,-2.7701,-2.7703,-2.7705,-2.7695,-2.767,-2.7669,-2.7668,-2.7667,0,-2.7829,-2.7794,-2.7839,-2.7813,-2.7808,-2.7846,-2.7824,-2.785,-2.7827,-2.7859,-2.7864,-2.7828,-2.7849,-2.7813,-2.783,-2.7811,-2.7876,-2.7856,-2.7878,-2.7872,-2.7929,-2.7924,-2.8124,-2.8147,-2.7957,-2.7959,-2.796,0,-2.7917,-2.7951,-2.7929,-2.7941,-2.7936,-2.7957,-2.7965,-2.792,-2.7931,-2.7925,-2.7952,-2.7969,-2.7979,-2.8017,-2.7993,-2.8006,-2.7985,-2.8054,-2.7986,-2.7998,-2.7984,-2.7982,-2.7985,-2.8067,-2.807,-2.8071,-2.8073,0,-2.8077,-2.8059,-2.8072,-2.808,-2.8092,-2.8096,-2.8097,-2.8111,-2.8063,-2.8079,-2.81,-2.8108,-2.8126,-2.8144,-2.8152,-2.8144,-2.8101,-2.8095,-2.8109,-2.812,-2.8131,-2.8125,-2.7914,-2.809,-2.8088,-2.8087,-2.8086,-2.8085,-2.8198,-2.8226,-2.8215,-2.8232,-2.8228,-2.8231,-2.8254,-2.8234,-2.8251,-2.8261,-2.8235,-2.8262,-2.8255,-2.8261,-2.8259,-2.8281,-2.825,-2.827,-2.8274,-2.8279,-2.8288,-2.813,-2.8282,-2.8282,-2.8281,-2.8281,-2.828,0,-2.8354,-2.8345,-2.8361,-2.8364,-2.8379,-2.8338,-2.8338,-2.8352,-2.8377,-2.8374,-2.8386,-2.8411,-2.8429,-2.8408,-2.8421,-2.8443,-2.8424,-2.8448,-2.8445,-2.8444,-2.8315,-2.8301,-2.8464,-2.8463,-2.8463,-2.8463,-2.8463,-2.8463,-2.8436,-2.8481,-2.8462,-2.8505,-2.8495,-2.8521,-2.8524,-2.8527,-2.8525,-2.8555,-2.8569,-2.8555,-2.8545,-2.8559,-2.8574,-2.8567,-2.8574,-2.8605,-2.8592,-2.8471,-2.8453,-2.8436,-2.8423,-2.8608,-2.8608,-2.8719,-2.872,-2.8721]},{"header":{"parameterUnit":"m.s-1","parameterCategory":1,"la1":30.2991,"la2":30.254,"lo1":-89.0895,"lo2":-89.0444,"dy":0.0017,"dx":0.0017,"nx":28,"ny":28,"refTime":"2023-10-26T03:00:00:Z","depth":0,"parameterNumber":3,"parameterNumberName":"V-component_of_WINDS"},"data":[0,0,0,0,0,0,0,0,0,0,0,0,0,0,0,0,0,0,0,0,0,0,0,0,0,0,0,0,0,0,0,0,0,0,0,0,0,0,0,0,0,0,0,0,0,0,0,0,0,0,0,0,0,0,0,0,0,0,0.8782,0.8781,0,0.8677,0.8676,0.8675,0.8545,0.8543,0.8541,0.8539,0.8432,0.8431,0.843,0,0,0,0,0,0,0,0,0,0,0,0,0,0.8874,0.8873,0.8782,0.8781,0.878,0.8677,0.8676,0.8674,0.8546,0.8543,0.8541,0.8539,0.8433,0.8431,0.843,0,0,0,0,0,0,0,0,0,0,0,0,0,0.8808,0.8872,0.8783,0.8703,0.8695,0.8677,0.8676,0.8674,0.8546,0.8543,0.854,0.8537,0.8433,0.8432,0.843,0.8482,0,0,0.8426,0.8425,0,0,0,0,0,0,0,0,0.8812,0.8805,0.8716,0.8709,0.87,0.8621,0.8668,0.861,0.8547,0.8603,0.8539,0.8536,0.8498,0.8491,0.8478,0.8477,0.8473,0.8426,0.8425,0.8424,0.8424,0,0,0,0,0,0,0,0.8817,0.8809,0.8741,0.8715,0.8705,0.8673,0.8661,0.8657,0.8569,0.8598,0.8588,0.8577,0.8492,0.8479,0.8474,0.8471,0.8426,0.8424,0.8423,0.8423,0.8509,0.8512,0,0,0,0,0,0,0.8833,0.8813,0.8744,0.8737,0.8749,0.8674,0.866,0.8649,0.8568,0.8553,0.858,0.8572,0.8483,0.8476,0.847,0.8526,0.8424,0.8423,0.8422,0.8506,0.851,0.8513,0,0,0,0,0,0,0.8835,0.8828,0.8748,0.8773,0.876,0.8676,0.8665,0.8649,0.8636,0.8555,0.8539,0.8583,0.8481,0.8472,0.848,0.852,0.8422,0.8421,0.8502,0.8507,0.8512,0.8639,0,0,0,0,0,0,0.8839,0.883,0.8848,0.8774,0.8759,0.876,0.8668,0.8649,0.8633,0.8621,0.8553,0.8539,0.8478,0.8483,0.8479,0.8517,0.842,0.8498,0.8505,0.851,0.863,0.8647,0.8661,0,0,0,0,0,0.8842,0.8888,0.885,0.8842,0.8781,0.8763,0.8754,0.8683,0.8637,0.8655,0.8604,0.8541,0.8517,0.8485,0.8479,0.8517,0.8495,0.8503,0.851,0.8623,0.8644,0.8661,0,0,0,0,0,0,0.8968,0.8877,0.8833,0.8856,0.8818,0.8741,0.8761,0.8706,0.8681,0.8671,0.8583,0.8569,0.8588,0.8553,0.8519,0.8564,0.8497,0.8503,0.8586,0.8604,0.862,0.8627,0.8419,0,0,0,0,0,0.8999,0.8992,0.8912,0.894,0.8923,0.8847,0.8836,0.8784,0.8741,0.8725,0.8673,0.8635,0.8618,0.8609,0.859,0.8625,0.8609,0.8648,0.8664,0.8677,0.8683,0.87,0.8717,0.8537,0.8537,0.8536,0,0,0.9062,0.9011,0.9012,0.8964,0.8929,0.8924,0.8834,0.8832,0.8828,0.8724,0.8729,0.8691,0.8642,0.8664,0.8672,0.8636,0.873,0.8686,0.8697,0.8696,0.871,0.8727,0.8742,0.8541,0.8541,0.854,0,0,0.9174,0.9134,0.9154,0.912,0.9068,0.9017,0.9022,0.8953,0.8924,0.8927,0.885,0.8844,0.8818,0.8786,0.8767,0.887,0.8811,0.8866,0.8946,0.8964,0.8978,0.8991,0.9028,0.9042,0.8873,0.8873,0.8873,0,0.9258,0.9247,0.9171,0.9174,0.9156,0.9063,0.9082,0.9054,0.8998,0.8988,0.8949,0.8915,0.8875,0.889,0.8915,0.8902,0.8906,0.8873,0.8982,0.8994,0.9004,0.9039,0.9053,0.888,0.8879,0.8878,0.8878,0,0.9354,0.9348,0.937,0.9319,0.9304,0.9316,0.9241,0.9235,0.9185,0.9139,0.9144,0.9094,0.9063,0.9063,0.9014,0.9071,0.905,0.8999,0.8929,0.903,0.9061,0.9073,0.889,0.8887,0.8885,0.8884,0,0,0.9541,0.9449,0.9458,0.9434,0.9371,0.9365,0.9373,0.9343,0.934,0.9305,0.931,0.9291,0.9243,0.9221,0.9168,0.9184,0.927,0.913,0.9127,0.9158,0.933,0.9369,0.9386,0.9231,0.9233,0.9235,0.9334,0,0.9641,0.9649,0.9581,0.9608,0.9602,0.9515,0.9522,0.9484,0.9441,0.9431,0.9383,0.9371,0.9308,0.9295,0.9306,0.9257,0.9303,0.9249,0.9235,0.9236,0.925,0.9402,0.9443,0.9539,0.9346,0.9348,0.9349,0,0.9758,0.9731,0.9757,0.9694,0.9689,0.9696,0.9664,0.9655,0.9611,0.9579,0.9556,0.9496,0.95,0.9436,0.9441,0.9406,0.9396,0.9372,0.9374,0.9369,0.9298,0.9402,0.9568,0.9582,0.9367,0.9366,0.9365,0,0.9892,0.9862,0.9874,0.9856,0.9782,0.979,0.976,0.9713,0.97,0.9672,0.9663,0.9636,0.9622,0.9603,0.9538,0.9497,0.9552,0.9481,0.9525,0.9527,0.954,0.954,0.9707,0.9535,0.9535,0.9535,0.9534,0,1.0011,1.003,0.9933,0.9941,0.996,0.9883,0.9905,0.9866,0.9826,0.9825,0.9748,0.9749,0.9662,0.9654,0.9603,0.9616,0.961,0.9585,0.9571,0.9591,0.9595,0.9584,0.9575,0.9538,0.9538,0.9537,0.9536,0,1.0163,1.0099,1.0106,1.0036,1.0019,1.0037,0.9978,0.9982,0.9935,0.9935,0.9931,0.9857,0.9843,0.9777,0.9747,0.9713,0.9744,0.9716,0.9759,0.975,0.9798,0.9794,0.9963,0.9982,0.9799,0.9801,0.9802,0,1.0242,1.0256,1.0188,1.0182,1.0155,1.0146,1.0133,1.0058,1.0047,0.9999,1.001,0.999,0.997,0.9952,0.9897,0.9874,0.9846,0.9907,0.9842,0.9863,0.9847,0.9847,0.9849,0.9921,0.9923,0.9925,0.9927,0,1.0391,1.0359,1.0342,1.0315,1.0302,1.0277,1.0247,1.0247,1.0163,1.0156,1.0141,1.0126,1.0096,1.0078,1.0046,1.0015,0.9958,0.9948,0.9957,0.9978,1.0002,0.999,0.9797,0.9944,0.9942,0.9941,0.994,0.9939,1.0509,1.0517,1.0471,1.0456,1.0426,1.0401,1.0402,1.0356,1.0342,1.0312,1.0269,1.026,1.0218,1.0169,1.0144,1.0137,1.0103,1.0117,1.012,1.0124,1.0135,1.0004,1.0131,1.013,1.0129,1.0129,1.0128,0,1.0653,1.062,1.0607,1.0568,1.0557,1.0504,1.0469,1.0463,1.0456,1.0421,1.0404,1.0388,1.037,1.0314,1.0291,1.0296,1.0269,1.0293,1.0291,1.0286,1.0166,1.016,1.0315,1.0315,1.0315,1.0315,1.0315,1.0315,1.0727,1.0738,1.0701,1.0698,1.0664,1.0655,1.064,1.0617,1.0588,1.0574,1.0559,1.0523,1.048,1.0453,1.0436,1.0419,1.0415,1.0447,1.0423,1.0312,1.0294,1.0277,1.0271,1.0447,1.0447,1.0543,1.0544,1.0545]}]]